This demonstration page uses our WeatherBlox Daily Observations layout. Learn more.

Left ArrowRight Arrow

39.92423, -83.80882

Hourly Observations for November 6, 2020

Temp ( °F °C ) Dew Point ( °F °C ) Humidity (%) Winds ( mph kmh ) Pressure ( in mb ) Visibility ( mi km ) Precip ( " mm )
12:56 am 00:56 Clear 49 9.4 44 6.7 83 83 SSW 7 11 30.29 1026 10 16 N/A
1:56 am 01:56 Clear 48 8.9 43 6.1 83 83 SSW 6 9 30.28 1026 10 16 N/A
2:56 am 02:56 Clear 47 8.3 43 6.1 86 86 SW 6 9 30.29 1026 10 16 N/A
3:56 am 03:56 Clear 40 4.4 39 3.9 97 97 S 5 7 30.29 1026 10 16 N/A
4:56 am 04:56 Clear 40 4.4 39 3.9 97 97 N N/A 30.29 1026 10 16 N/A
5:56 am 05:56 Clear 41 5 40 4.4 96 96 SSW 6 9 30.30 1026 10 16 N/A
6:56 am 06:56 Clear 45 7.2 42 5.6 90 90 SSW 7 11 30.30 1026 10 16 N/A
7:56 am 07:56 Sunny 48 8.9 44 6.7 86 86 SSW 7 11 30.32 1027 10 16 N/A
8:56 am 08:56 Sunny 53 11.7 45 7.2 74 74 SW 5 7 30.33 1027 10 16 N/A
9:56 am 09:56 Sunny 59 15 46 7.8 62 62 WSW 7 11 30.33 1027 10 16 N/A
10:56 am 10:56 Sunny 64 17.8 47 8.3 54 54 WSW 7 11 30.33 1027 10 16 N/A
11:56 am 11:56 Sunny 66 18.9 47 8.3 50 50 WSW 9 15 30.31 1026 10 16 N/A
12:56 pm 12:56 Sunny 68 20 46 7.8 45 45 WSW 12 19 30.28 1025 10 16 N/A
1:56 pm 13:56 Sunny 69 20.6 46 7.8 44 44 SW 6 9 30.27 1025 10 16 N/A
2:56 pm 14:56 Sunny 69 20.6 44 6.7 41 41 WSW 9 15 30.26 1025 10 16 N/A
3:56 pm 15:56 Sunny 68 20 44 6.7 42 42 SW 8 13 30.27 1025 10 16 N/A
4:56 pm 16:56 Sunny 65 18.3 43 6.1 45 45 SW 6 9 30.27 1025 10 16 N/A
5:56 pm 17:56 Clear 57 13.9 42 5.6 58 58 SW 5 7 30.28 1025 10 16 N/A
6:56 pm 18:56 Clear 49 9.4 41 5 74 74 N N/A 30.29 1026 10 16 N/A
7:56 pm 19:56 Clear 47 8.3 40 4.4 77 77 SSE 5 7 30.29 1026 10 16 N/A
8:56 pm 20:56 Clear 45 7.2 42 5.6 90 90 SSE 5 7 30.28 1025 10 16 N/A
9:56 pm 21:56 Clear 42 5.6 39 3.9 89 89 SSE 6 9 30.28 1026 10 16 N/A
10:56 pm 22:56 Clear 53 11.7 43 6.1 69 69 S 6 9 30.27 1025 10 16 N/A
11:56 pm 23:56 Clear 45 7.2 42 5.6 90 90 S 3 6 30.27 1025 10 16 N/A

Powered by AerisWeather